Weather History for KOLS - October, 2013

Change the Weather History Date:

Saturday, October 12, 2013

  Actual Average (KTUS) Record (KTUS)
Temperature  
Mean Temperature 62 °F 72 °F  
Max Temperature 81 °F 86 °F 99 °F (1992)
Min Temperature 43 °F 59 °F 35 °F (1924)
Degree Days  
Heating Degree Days 3 0  
Month to date heating degree days 0  
Since 1 July heating degree days 0  
Cooling Degree Days 0 8  
Month to date cooling degree days 116  
Year to date cooling degree days 3023  
Growing Degree Days 12 (Base 50)    
Moisture  
Dew Point 32 °F    
Average Humidity 36    
Maximum Humidity 68    
Minimum Humidity 13    
Precipitation  
Precipitation 0.00 in 0.03 in 0.94 in (1932)
Month to date precipitation 0.42  
Year to date precipitation 9.62  
Sea Level Pressure  
Sea Level Pressure 29.87 in    
Wind  
Wind Speed 4 mph (SSE)    
Max Wind Speed 16 mph    
Max Gust Speed 28 mph    
Visibility 10 miles    
Events      
T = Trace of Precipitation, MM = Missing Value Source: NWS Daily Summary

Daily Weather History Graph

Daily Weather History Graph

Search for Another Location

Airport or City:

Trip Planner

Search our weather history database for the weather conditions in past years. The results will help you decide how hot, cold, wet, or windy it might be!

Date:

Astronomy

Oct. 12, 2013 Rise Set
Actual Time 6:24 AM MST 5:54 PM MST
Civil Twilight 6:00 AM MST 6:18 PM MST
Nautical Twilight 5:31 AM MST 6:47 PM MST
Astronomical Twilight 5:03 AM MST 7:15 PM MST
Moon 1:45 PM MST (10/12) No Moon Set
Length of Visible Light 12h 18m
Length of Day
11h 30m
First Quarter, 60% of the Moon is Illuminated
Oct 12
First Quarter
Oct 18
Full
Oct 26
Last Quarter
Nov 3
New
Nov 9
First Quarter

Hourly Weather History & Observations

Time (MST) Temp. Windchill Dew Point Humidity Pressure Visibility Wind Dir Wind Speed Gust Speed Precip Events Conditions
12:54 AM 48.9 °F - 34.0 °F 56% 29.89 in 10.0 mi Calm Calm - N/A   Clear
1:54 AM 46.9 °F - 34.0 °F 61% 29.89 in 10.0 mi Calm Calm - N/A   Clear
2:54 AM 46.0 °F 44.8 °F 33.1 °F 61% 29.88 in 10.0 mi East 3.5 mph - N/A   Clear
3:54 AM 45.0 °F - 33.1 °F 63% 29.87 in 10.0 mi Calm Calm - N/A   Clear
4:54 AM 44.1 °F - 33.1 °F 65% 29.89 in 10.0 mi Calm Calm - N/A   Clear
5:54 AM 43.0 °F - 33.1 °F 68% 29.90 in 10.0 mi Calm Calm - N/A   Clear
6:54 AM 45.0 °F 41.8 °F 34.0 °F 65% 29.92 in 10.0 mi ENE 5.8 mph - N/A   Clear
7:54 AM 53.1 °F - 35.1 °F 50% 29.94 in 10.0 mi Calm Calm - N/A   Clear
8:54 AM 64.0 °F - 35.1 °F 34% 29.91 in 10.0 mi Variable 3.5 mph - N/A   Clear
9:54 AM 73.0 °F - 32.0 °F 22% 29.88 in 10.0 mi SE 11.5 mph - N/A   Clear
10:54 AM 75.0 °F - 33.1 °F 22% 29.88 in 10.0 mi SE 9.2 mph 25.3 mph N/A   Clear
11:54 AM 78.1 °F - 27.0 °F 15% 29.86 in 10.0 mi SSW 10.4 mph - N/A   Clear
12:54 PM 79.0 °F - 28.0 °F 15% 29.84 in 10.0 mi SSW 16.1 mph 24.2 mph N/A   Clear
1:54 PM 81.0 °F - 27.0 °F 14% 29.83 in 10.0 mi SSW 15.0 mph 20.7 mph N/A   Clear
2:54 PM 81.0 °F - 27.0 °F 14% 29.82 in 10.0 mi South 8.1 mph 19.6 mph N/A   Clear
3:54 PM 80.1 °F - 24.1 °F 13% 29.82 in 10.0 mi South 16.1 mph 27.6 mph N/A   Clear
4:54 PM 78.1 °F - 26.1 °F 15% 29.84 in 10.0 mi South 15.0 mph 19.6 mph N/A   Clear
5:54 PM 73.0 °F - 32.0 °F 22% 29.87 in 10.0 mi South 9.2 mph - N/A   Clear
6:54 PM 69.1 °F - 32.0 °F 25% 29.88 in 10.0 mi SSE 5.8 mph - N/A   Clear
7:54 PM 69.1 °F - 34.0 °F 27% 29.88 in 10.0 mi SSE 8.1 mph - N/A   Clear
8:54 PM 66.9 °F - 36.0 °F 32% 29.88 in 10.0 mi South 3.5 mph - N/A   Clear
9:54 PM 64.0 °F - 37.0 °F 37% 29.87 in 10.0 mi SSE 4.6 mph - N/A   Clear
10:54 PM 64.0 °F - 37.0 °F 37% 29.86 in 10.0 mi South 4.6 mph - N/A   Clear
11:54 PM 62.1 °F - 37.9 °F 41% 29.86 in 10.0 mi SSW 3.5 mph - N/A   Clear